AAL3315 KMIA-TNCM

Flight info

Callsign AAL3315
Flight time 2h 27m
Altitude 37000
Route KLADA2 BITAC Y290 SLUGO
Aircraft A320/M-SDE3FGHIRWY/LB1

Departure

Time 2026-05-04 19:06
Airport Miami International Airport (KMIA)

Arrival

Time 2026-05-04 21:33
Airport Princess Juliana International Airport (TNCM)
Time Latitude Longitude Altitude Speed Heading
2026-05-04 18:19 25.79824 -80.28265 18 ft 0 kts 177°
2026-05-04 18:54 25.79827 -80.28265 18 ft 3 kts 177°
2026-05-04 18:55 25.79854 -80.28267 19 ft 4 kts 181°
2026-05-04 18:55 25.79890 -80.28242 21 ft 1 kts 267°
2026-05-04 18:55 25.79890 -80.28241 21 ft 0 kts 268°
2026-05-04 18:59 25.79890 -80.28244 21 ft 1 kts 268°
2026-05-04 19:00 25.79890 -80.28267 18 ft 5 kts 274°
2026-05-04 19:00 25.79906 -80.28301 19 ft 5 kts 313°
2026-05-04 19:00 25.79940 -80.28316 19 ft 6 kts 348°
2026-05-04 19:00 25.79983 -80.28310 19 ft 7 kts
2026-05-04 19:01 25.80026 -80.28341 19 ft 8 kts 302°
2026-05-04 19:01 25.80032 -80.28411 19 ft 10 kts 266°
2026-05-04 19:01 25.80029 -80.28492 20 ft 11 kts 267°
2026-05-04 19:01 25.80026 -80.28572 22 ft 10 kts 268°
2026-05-04 19:02 25.80024 -80.28644 25 ft 9 kts 268°
2026-05-04 19:02 25.80022 -80.28709 26 ft 9 kts 266°
2026-05-04 19:02 25.80017 -80.28780 27 ft 10 kts 266°
2026-05-04 19:02 25.80013 -80.28866 28 ft 13 kts 267°
2026-05-04 19:03 25.80009 -80.28978 24 ft 16 kts 268°
2026-05-04 19:03 25.80002 -80.29107 25 ft 17 kts 268°
2026-05-04 19:03 25.79998 -80.29243 25 ft 19 kts 266°
2026-05-04 19:03 25.79992 -80.29405 21 ft 23 kts 268°
2026-05-04 19:04 25.79985 -80.29595 17 ft 26 kts 267°
2026-05-04 19:04 25.79975 -80.29795 17 ft 27 kts 268°
2026-05-04 19:04 25.79972 -80.29933 15 ft 1 kts 282°
2026-05-04 19:04 25.79975 -80.29949 15 ft 0 kts 282°
2026-05-04 19:05 25.79983 -80.29980 17 ft 11 kts 289°
2026-05-04 19:05 25.80049 -80.30037 17 ft 14 kts
2026-05-04 19:05 25.80078 -80.29937 16 ft 17 kts 86°
2026-05-04 19:06 25.80096 -80.29542 18 ft 93 kts 87°
2026-05-04 19:06 25.80139 -80.28588 75 ft 149 kts 86°
2026-05-04 19:06 25.80146 -80.27356 638 ft 169 kts 86°
2026-05-04 19:06 25.80121 -80.26002 1486 ft 177 kts 94°
2026-05-04 19:07 25.79730 -80.24664 2370 ft 190 kts 109°
2026-05-04 19:07 25.79154 -80.23246 2772 ft 214 kts 111°
2026-05-04 19:07 25.78470 -80.21673 3204 ft 238 kts 113°
2026-05-04 19:07 25.77696 -80.19937 3574 ft 262 kts 114°
2026-05-04 19:08 25.76862 -80.18090 4181 ft 273 kts 115°
2026-05-04 19:08 25.75963 -80.16200 4862 ft 282 kts 117°
2026-05-04 19:08 25.74998 -80.14256 5537 ft 290 kts 119°
2026-05-04 19:08 25.74012 -80.12298 6341 ft 291 kts 120°
2026-05-04 19:09 25.73116 -80.10262 7066 ft 298 kts 111°
2026-05-04 19:09 25.72380 -80.08093 7804 ft 302 kts 111°
2026-05-04 19:09 25.71648 -80.05896 8550 ft 306 kts 111°
2026-05-04 19:09 25.70910 -80.03658 9246 ft 312 kts 111°
2026-05-04 19:10 25.70155 -80.01375 9896 ft 318 kts 112°
2026-05-04 19:10 25.69380 -79.99035 10319 ft 332 kts 112°
2026-05-04 19:10 25.68554 -79.96549 10473 ft 355 kts 112°
2026-05-04 19:10 25.67684 -79.93929 10866 ft 366 kts 112°
2026-05-04 19:11 25.66801 -79.91264 11440 ft 371 kts 112°
2026-05-04 19:11 25.65907 -79.88560 12045 ft 375 kts 112°
2026-05-04 19:11 25.65003 -79.85828 12660 ft 379 kts 113°
2026-05-04 19:11 25.64089 -79.83077 13265 ft 383 kts 113°
2026-05-04 19:12 25.63161 -79.80292 13848 ft 387 kts 113°
2026-05-04 19:12 25.61274 -79.74638 14863 ft 395 kts 113°
2026-05-04 19:12 25.60318 -79.71782 15373 ft 398 kts 113°
2026-05-04 19:13 25.59355 -79.68920 15810 ft 402 kts 114°
2026-05-04 19:13 25.58328 -79.66000 15931 ft 402 kts 115°
2026-05-04 19:13 25.57292 -79.63168 15970 ft 402 kts 115°
2026-05-04 19:13 25.56224 -79.60297 15964 ft 402 kts 116°
2026-05-04 19:14 25.55157 -79.57436 16043 ft 405 kts 116°
2026-05-04 19:14 25.54084 -79.54550 16598 ft 406 kts 116°
2026-05-04 19:14 25.53015 -79.51651 17122 ft 409 kts 115°
2026-05-04 19:14 25.51941 -79.48722 17645 ft 412 kts 115°
2026-05-04 19:15 25.50864 -79.45776 18155 ft 415 kts 115°
2026-05-04 19:15 25.49779 -79.42807 18610 ft 418 kts 115°
2026-05-04 19:15 25.48685 -79.39818 19048 ft 421 kts 115°
2026-05-04 19:15 25.47578 -79.36801 19484 ft 424 kts 115°
2026-05-04 19:16 25.46463 -79.33769 19956 ft 426 kts 115°
2026-05-04 19:16 25.45341 -79.30723 20417 ft 429 kts 115°
2026-05-04 19:16 25.44212 -79.27660 20872 ft 432 kts 115°
2026-05-04 19:16 25.43073 -79.24571 21325 ft 435 kts 115°
2026-05-04 19:17 25.41926 -79.21459 21776 ft 438 kts 115°
2026-05-04 19:17 25.40771 -79.18334 22225 ft 440 kts 115°
2026-05-04 19:17 25.39609 -79.15188 22670 ft 443 kts 115°
2026-05-04 19:17 25.38437 -79.12018 23100 ft 446 kts 115°
2026-05-04 19:18 25.37259 -79.08839 23528 ft 449 kts 115°
2026-05-04 19:18 25.36070 -79.05634 23882 ft 451 kts 115°
2026-05-04 19:18 25.34879 -79.02415 24246 ft 454 kts 115°
2026-05-04 19:18 25.33683 -78.99177 24589 ft 456 kts 115°
2026-05-04 19:19 25.32476 -78.95914 24924 ft 459 kts 115°
2026-05-04 19:19 25.31263 -78.92641 25255 ft 462 kts 115°
2026-05-04 19:19 25.30038 -78.89344 25582 ft 464 kts 115°
2026-05-04 19:19 25.28807 -78.86035 25906 ft 467 kts 115°
2026-05-04 19:20 25.27567 -78.82709 26227 ft 470 kts 115°
2026-05-04 19:20 25.26320 -78.79366 26542 ft 472 kts 115°
2026-05-04 19:20 25.25066 -78.76000 26853 ft 475 kts 115°
2026-05-04 19:20 25.23805 -78.72618 27158 ft 478 kts 115°
2026-05-04 19:21 25.22533 -78.69215 27471 ft 480 kts 115°
2026-05-04 19:21 25.21689 -78.66958 27671 ft 482 kts 115°
2026-05-04 19:21 25.20403 -78.63522 27990 ft 485 kts 115°
2026-05-04 19:21 25.19113 -78.60078 28274 ft 487 kts 115°
2026-05-04 19:22 25.17811 -78.56612 28601 ft 489 kts 116°
2026-05-04 19:22 25.16463 -78.53163 28905 ft 491 kts 117°
2026-05-04 19:22 25.14596 -78.48593 29299 ft 494 kts 118°
2026-05-04 19:22 25.13622 -78.46264 29511 ft 496 kts 118°
2026-05-04 19:23 25.12168 -78.42807 29809 ft 498 kts 118°
2026-05-04 19:23 25.10710 -78.39325 30127 ft 500 kts 118°
2026-05-04 19:23 25.09266 -78.35846 30504 ft 499 kts 118°
2026-05-04 19:23 25.07830 -78.32366 30890 ft 498 kts 118°
2026-05-04 19:24 25.06400 -78.28892 31272 ft 497 kts 118°
2026-05-04 19:24 25.04978 -78.25426 31655 ft 496 kts 118°
2026-05-04 19:24 25.03558 -78.21967 32032 ft 495 kts 118°
2026-05-04 19:24 25.02137 -78.18511 32420 ft 494 kts 118°
2026-05-04 19:25 25.00717 -78.15069 32809 ft 493 kts 119°
2026-05-04 19:25 24.99297 -78.11632 33202 ft 492 kts 119°
2026-05-04 19:25 24.97899 -78.08253 33592 ft 491 kts 119°
2026-05-04 19:25 24.96485 -78.04832 33981 ft 490 kts 119°
2026-05-04 19:26 24.95073 -78.01414 34286 ft 489 kts 120°
2026-05-04 19:26 24.93665 -77.98004 34546 ft 490 kts 120°
2026-05-04 19:26 24.92250 -77.94584 34793 ft 490 kts 120°
2026-05-04 19:26 24.90832 -77.91168 35035 ft 491 kts 120°
2026-05-04 19:27 24.89408 -77.87749 35271 ft 492 kts 120°
2026-05-04 19:27 24.87981 -77.84324 35494 ft 492 kts 120°
2026-05-04 19:27 24.86551 -77.80895 35712 ft 493 kts 120°
2026-05-04 19:27 24.85118 -77.77456 35929 ft 494 kts 120°
2026-05-04 19:28 24.83686 -77.74020 36166 ft 494 kts 120°
2026-05-04 19:28 24.82252 -77.70581 36376 ft 495 kts 120°
2026-05-04 19:28 24.80810 -77.67123 36540 ft 496 kts 120°
2026-05-04 19:28 24.79369 -77.63669 36721 ft 497 kts 120°
2026-05-04 19:29 24.77927 -77.60213 36916 ft 497 kts 121°
2026-05-04 19:29 24.75002 -77.53257 36989 ft 503 kts 121°
2026-05-04 19:30 24.71936 -77.46350 36999 ft 502 kts 123°
2026-05-04 19:30 24.68758 -77.39513 36999 ft 502 kts 123°
2026-05-04 19:31 24.65580 -77.32674 37001 ft 502 kts 123°
2026-05-04 19:31 24.62450 -77.25863 37002 ft 503 kts 123°
2026-05-04 19:32 24.59290 -77.18944 37018 ft 503 kts 122°
2026-05-04 19:32 24.56161 -77.12113 37023 ft 504 kts 123°
2026-05-04 19:33 24.53002 -77.05237 37017 ft 504 kts 123°
2026-05-04 19:33 24.49838 -76.98367 37027 ft 504 kts 123°
2026-05-04 19:34 24.46664 -76.91502 37023 ft 504 kts 123°
2026-05-04 19:34 24.43491 -76.84642 37009 ft 504 kts 123°
2026-05-04 19:35 24.40314 -76.77790 36995 ft 503 kts 122°
2026-05-04 19:35 24.37160 -76.70977 37010 ft 503 kts 122°
2026-05-04 19:36 24.33988 -76.64141 37015 ft 503 kts 122°
2026-05-04 19:36 24.30805 -76.57293 37019 ft 503 kts 122°
2026-05-04 19:37 24.27623 -76.50454 37020 ft 503 kts 122°
2026-05-04 19:37 24.24437 -76.43628 37010 ft 503 kts 123°
2026-05-04 19:38 24.21246 -76.36803 37013 ft 503 kts 122°
2026-05-04 19:38 24.18057 -76.29975 37013 ft 504 kts 122°
2026-05-04 19:39 24.14865 -76.23145 37015 ft 504 kts 123°
2026-05-04 19:39 24.11666 -76.16319 37019 ft 504 kts 123°
2026-05-04 19:40 24.08457 -76.09493 37017 ft 504 kts 123°
2026-05-04 19:40 24.05256 -76.02682 37019 ft 503 kts 123°
2026-05-04 19:41 24.02048 -75.95874 37016 ft 503 kts 123°
2026-05-04 19:41 23.98853 -75.89121 37016 ft 503 kts 123°
2026-05-04 19:42 23.95636 -75.82324 37022 ft 503 kts 123°
2026-05-04 19:42 23.92426 -75.75525 37009 ft 503 kts 123°
2026-05-04 19:43 23.89210 -75.68716 37008 ft 504 kts 123°
2026-05-04 19:43 23.85981 -75.61923 37012 ft 504 kts 123°
2026-05-04 19:44 23.82747 -75.55121 37015 ft 505 kts 123°
2026-05-04 19:44 23.79520 -75.48309 37020 ft 505 kts 123°
2026-05-04 19:45 23.76279 -75.41513 37009 ft 505 kts 123°
2026-05-04 19:45 23.73028 -75.34719 37010 ft 505 kts 123°
2026-05-04 19:46 23.69777 -75.27924 37011 ft 505 kts 123°
2026-05-04 19:46 23.66520 -75.21125 36991 ft 505 kts 123°
2026-05-04 19:47 23.63274 -75.14334 37001 ft 506 kts 123°
2026-05-04 19:47 23.60036 -75.07576 37019 ft 506 kts 123°
2026-05-04 19:48 23.56770 -75.00786 37024 ft 505 kts 123°
2026-05-04 19:48 23.53511 -74.94004 37032 ft 505 kts 123°
2026-05-04 19:49 23.50252 -74.87222 37033 ft 505 kts 123°
2026-05-04 19:49 23.46983 -74.80451 37034 ft 504 kts 123°
2026-05-04 19:50 23.43709 -74.73691 37034 ft 504 kts 123°
2026-05-04 19:50 23.40439 -74.66926 37033 ft 504 kts 123°
2026-05-04 19:51 23.37170 -74.60183 37030 ft 504 kts 123°
2026-05-04 19:51 23.33895 -74.53437 37029 ft 504 kts 123°
2026-05-04 19:52 23.30642 -74.46735 37026 ft 504 kts 123°
2026-05-04 19:52 23.27365 -74.40006 36998 ft 503 kts 123°
2026-05-04 19:53 23.24090 -74.33281 36997 ft 503 kts 123°
2026-05-04 19:53 23.20814 -74.26556 37011 ft 503 kts 123°
2026-05-04 19:54 23.17538 -74.19848 37013 ft 503 kts 123°
2026-05-04 19:54 23.14254 -74.13137 37017 ft 503 kts 123°
2026-05-04 19:55 23.10967 -74.06424 37021 ft 503 kts 123°
2026-05-04 19:55 23.07674 -73.99709 37010 ft 503 kts 123°
2026-05-04 19:56 23.04382 -73.93011 37014 ft 503 kts 123°
2026-05-04 19:56 23.01085 -73.86310 37015 ft 503 kts 123°
2026-05-04 19:57 22.97785 -73.79608 37018 ft 503 kts 123°
2026-05-04 19:57 22.94487 -73.72916 37020 ft 503 kts 123°
2026-05-04 19:58 22.91185 -73.66229 37020 ft 503 kts 123°
2026-05-04 19:58 22.87875 -73.59541 36993 ft 502 kts 123°
2026-05-04 19:59 22.84567 -73.52875 37019 ft 502 kts 123°
2026-05-04 19:59 22.81269 -73.46211 37026 ft 501 kts 123°
2026-05-04 20:00 22.77993 -73.39594 37027 ft 501 kts 123°
2026-05-04 20:00 22.74685 -73.32949 37028 ft 501 kts 123°
2026-05-04 20:01 22.71372 -73.26309 37028 ft 500 kts 123°
2026-05-04 20:01 22.68064 -73.19678 37027 ft 500 kts 123°
2026-05-04 20:02 22.64761 -73.13052 37025 ft 500 kts 123°
2026-05-04 20:02 22.61461 -73.06423 37025 ft 500 kts 123°
2026-05-04 20:03 22.58147 -72.99800 37024 ft 500 kts 123°
2026-05-04 20:03 22.54830 -72.93196 37019 ft 500 kts 123°
2026-05-04 20:04 22.51513 -72.86587 37021 ft 500 kts 123°
2026-05-04 20:04 22.48222 -72.80015 36994 ft 500 kts 123°
2026-05-04 20:05 22.44903 -72.73414 37016 ft 499 kts 123°
2026-05-04 20:05 22.41581 -72.66827 37024 ft 498 kts 123°
2026-05-04 20:06 22.38253 -72.60255 37023 ft 498 kts 123°
2026-05-04 20:06 22.34937 -72.53678 37023 ft 498 kts 123°
2026-05-04 20:07 22.31623 -72.47118 37025 ft 497 kts 123°
2026-05-04 20:07 22.28866 -72.41668 37025 ft 497 kts 123°
2026-05-04 20:08 22.25548 -72.35117 37025 ft 497 kts 123°
2026-05-04 20:08 22.22228 -72.28575 37021 ft 497 kts 123°
2026-05-04 20:09 22.18901 -72.22029 37023 ft 497 kts 123°
2026-05-04 20:09 22.15577 -72.15493 37026 ft 496 kts 123°
2026-05-04 20:10 22.12274 -72.08997 37025 ft 496 kts 123°
2026-05-04 20:10 22.08949 -72.02470 37022 ft 496 kts 123°
2026-05-04 20:11 22.05619 -71.95953 37020 ft 495 kts 123°
2026-05-04 20:11 22.02293 -71.89449 37028 ft 495 kts 122°
2026-05-04 20:12 21.98975 -71.82957 37022 ft 494 kts 123°
2026-05-04 20:12 21.95652 -71.76480 37028 ft 494 kts 123°
2026-05-04 20:13 21.92329 -71.70014 37026 ft 493 kts 123°
2026-05-04 20:13 21.89004 -71.63546 37024 ft 493 kts 123°
2026-05-04 20:14 21.85680 -71.57084 37030 ft 493 kts 123°
2026-05-04 20:14 21.82357 -71.50625 37018 ft 493 kts 122°
2026-05-04 20:15 21.79054 -71.44215 37020 ft 493 kts 122°
2026-05-04 20:15 21.75725 -71.37761 37018 ft 493 kts 122°
2026-05-04 20:16 21.72395 -71.31318 37024 ft 493 kts 123°
2026-05-04 20:16 21.69055 -71.24878 37018 ft 493 kts 123°
2026-05-04 20:17 21.65716 -71.18432 37012 ft 493 kts 122°
2026-05-04 20:17 21.62382 -71.11994 37022 ft 492 kts 122°
2026-05-04 20:18 21.59046 -71.05569 37027 ft 492 kts 122°
2026-05-04 20:18 21.55410 -70.99382 37026 ft 489 kts 128°
2026-05-04 20:19 21.51569 -70.93354 37029 ft 489 kts 128°
2026-05-04 20:19 21.47728 -70.87330 37021 ft 489 kts 128°
2026-05-04 20:20 21.43894 -70.81302 37019 ft 489 kts 128°
2026-05-04 20:20 21.40054 -70.75267 37019 ft 489 kts 128°
2026-05-04 20:21 21.36212 -70.69247 37023 ft 489 kts 128°
2026-05-04 20:21 21.30462 -70.60254 37024 ft 489 kts 128°
2026-05-04 20:22 21.26612 -70.54238 37021 ft 489 kts 128°
2026-05-04 20:22 21.22763 -70.48233 37022 ft 488 kts 128°
2026-05-04 20:23 21.18924 -70.42237 37026 ft 488 kts 128°
2026-05-04 20:23 21.15083 -70.36250 37025 ft 487 kts 128°
2026-05-04 20:24 21.11245 -70.30273 37023 ft 487 kts 128°
2026-05-04 20:24 21.07398 -70.24302 37023 ft 487 kts 128°
2026-05-04 20:25 21.03549 -70.18334 37020 ft 487 kts 128°
2026-05-04 20:25 20.99708 -70.12372 37020 ft 486 kts 128°
2026-05-04 20:26 20.95870 -70.06422 37018 ft 486 kts 128°
2026-05-04 20:26 20.92022 -70.00470 37018 ft 486 kts 128°
2026-05-04 20:27 20.88186 -69.94534 37010 ft 485 kts 128°
2026-05-04 20:27 20.84351 -69.88596 37017 ft 485 kts 128°
2026-05-04 20:28 20.80515 -69.82669 37020 ft 485 kts 128°
2026-05-04 20:28 20.76672 -69.76754 37020 ft 484 kts 128°
2026-05-04 20:29 20.72854 -69.70883 37022 ft 484 kts 128°
2026-05-04 20:29 20.69012 -69.64973 37023 ft 484 kts 128°
2026-05-04 20:30 20.65165 -69.59066 37026 ft 484 kts 128°
2026-05-04 20:30 20.61318 -69.53164 37027 ft 484 kts 128°
2026-05-04 20:31 20.57476 -69.47266 37023 ft 484 kts 128°
2026-05-04 20:31 20.53622 -69.41370 37027 ft 483 kts 128°
2026-05-04 20:32 20.49785 -69.35487 37019 ft 483 kts 128°
2026-05-04 20:32 20.45951 -69.29615 37026 ft 482 kts 128°
2026-05-04 20:33 20.42114 -69.23758 37031 ft 482 kts 128°
2026-05-04 20:33 20.38273 -69.17897 37036 ft 482 kts 128°
2026-05-04 20:34 20.34431 -69.12040 37036 ft 482 kts 128°
2026-05-04 20:34 20.30611 -69.06228 37033 ft 482 kts 128°
2026-05-04 20:35 20.26766 -69.00383 37038 ft 482 kts 128°
2026-05-04 20:35 20.22915 -68.94533 37039 ft 482 kts 128°
2026-05-04 20:36 20.19071 -68.88704 37033 ft 481 kts 128°
2026-05-04 20:36 20.15217 -68.82869 37030 ft 481 kts 128°
2026-05-04 20:37 20.11376 -68.77043 37036 ft 481 kts 128°
2026-05-04 20:37 20.07538 -68.71208 37037 ft 481 kts 127°
2026-05-04 20:38 20.03808 -68.65293 37033 ft 482 kts 126°
2026-05-04 20:38 20.00163 -68.59299 37036 ft 482 kts 126°
2026-05-04 20:39 19.96532 -68.53360 37035 ft 482 kts 126°
2026-05-04 20:39 19.92849 -68.47412 37038 ft 482 kts 126°
2026-05-04 20:40 19.89154 -68.41473 37037 ft 482 kts 126°
2026-05-04 20:40 19.85462 -68.35539 37044 ft 482 kts 126°
2026-05-04 20:41 19.81754 -68.29597 37045 ft 482 kts 126°
2026-05-04 20:41 19.78060 -68.23662 37043 ft 482 kts 126°
2026-05-04 20:42 19.74366 -68.17725 37032 ft 481 kts 125°
2026-05-04 20:42 19.70680 -68.11797 37043 ft 481 kts 126°
2026-05-04 20:43 19.66987 -68.05881 37046 ft 481 kts 126°
2026-05-04 20:43 19.63288 -67.99972 37047 ft 480 kts 126°
2026-05-04 20:44 19.59582 -67.94064 37048 ft 480 kts 126°
2026-05-04 20:44 19.55886 -67.88171 37046 ft 480 kts 126°
2026-05-04 20:45 19.52196 -67.82283 37045 ft 479 kts 126°
2026-05-04 20:45 19.48502 -67.76391 37044 ft 479 kts 126°
2026-05-04 20:46 19.44809 -67.70507 37042 ft 479 kts 126°
2026-05-04 20:46 19.41137 -67.64671 37044 ft 479 kts 126°
2026-05-04 20:47 19.37442 -67.58804 37045 ft 479 kts 126°
2026-05-04 20:47 19.33738 -67.52929 37034 ft 479 kts 125°
2026-05-04 20:48 19.30036 -67.47059 37044 ft 479 kts 125°
2026-05-04 20:48 19.26336 -67.41202 37045 ft 478 kts 125°
2026-05-04 20:49 19.22643 -67.35348 37047 ft 478 kts 125°
2026-05-04 20:49 19.18941 -67.29493 37049 ft 479 kts 125°
2026-05-04 20:50 19.15236 -67.23635 37042 ft 479 kts 125°
2026-05-04 20:50 19.11529 -67.17785 37045 ft 479 kts 125°
2026-05-04 20:51 19.07820 -67.11936 37041 ft 479 kts 125°
2026-05-04 20:51 19.04109 -67.06104 37040 ft 479 kts 125°
2026-05-04 20:52 19.01023 -67.01243 37030 ft 479 kts 125°
2026-05-04 20:52 18.97309 -66.95392 37031 ft 479 kts 125°
2026-05-04 20:53 18.93590 -66.89545 37029 ft 479 kts 125°
2026-05-04 20:53 18.89860 -66.83701 37035 ft 478 kts 125°
2026-05-04 20:54 18.86146 -66.77875 37035 ft 478 kts 125°
2026-05-04 20:54 18.82436 -66.72066 37027 ft 477 kts 125°
2026-05-04 20:55 18.78740 -66.66247 37023 ft 477 kts 122°
2026-05-04 20:55 18.76164 -66.59834 37014 ft 477 kts 103°
2026-05-04 20:56 18.75395 -66.52951 37010 ft 476 kts 93°
2026-05-04 20:56 18.74931 -66.45988 37010 ft 476 kts 93°
2026-05-04 20:57 18.74464 -66.39022 37012 ft 476 kts 93°
2026-05-04 20:57 18.74000 -66.32052 37017 ft 476 kts 93°
2026-05-04 20:58 18.73531 -66.25081 37019 ft 476 kts 93°
2026-05-04 20:58 18.73057 -66.18113 37030 ft 476 kts 93°
2026-05-04 20:59 18.72580 -66.11148 37034 ft 476 kts 93°
2026-05-04 20:59 18.72102 -66.04188 37034 ft 475 kts 93°
2026-05-04 21:00 18.71622 -65.97228 37037 ft 475 kts 93°
2026-05-04 21:00 18.71144 -65.90275 37030 ft 475 kts 93°
2026-05-04 21:01 18.70902 -65.86802 36791 ft 474 kts 93°
2026-05-04 21:01 18.70658 -65.83332 36546 ft 473 kts 93°
2026-05-04 21:01 18.70414 -65.79878 36303 ft 473 kts 93°
2026-05-04 21:01 18.70170 -65.76421 36063 ft 472 kts 93°
2026-05-04 21:02 18.69928 -65.72977 35824 ft 470 kts 94°
2026-05-04 21:02 18.69688 -65.69582 35589 ft 468 kts 94°
2026-05-04 21:02 18.69448 -65.66164 35355 ft 466 kts 94°
2026-05-04 21:02 18.69212 -65.62768 35122 ft 463 kts 94°
2026-05-04 21:03 18.68977 -65.59390 34896 ft 461 kts 94°
2026-05-04 21:03 18.68740 -65.56030 34672 ft 458 kts 94°
2026-05-04 21:03 18.68500 -65.52691 34322 ft 455 kts 94°
2026-05-04 21:03 18.68261 -65.49375 33982 ft 452 kts 94°
2026-05-04 21:04 18.68026 -65.46084 33596 ft 449 kts 94°
2026-05-04 21:04 18.67793 -65.42818 33216 ft 446 kts 94°
2026-05-04 21:04 18.67561 -65.39564 32841 ft 442 kts 94°
2026-05-04 21:04 18.67296 -65.36338 32470 ft 440 kts 98°
2026-05-04 21:05 18.66794 -65.33169 32111 ft 437 kts 99°
2026-05-04 21:05 18.66275 -65.30020 31750 ft 434 kts 99°
2026-05-04 21:05 18.65758 -65.26891 31394 ft 431 kts 99°
2026-05-04 21:05 18.65245 -65.23784 31044 ft 427 kts 99°
2026-05-04 21:06 18.64741 -65.20709 30702 ft 424 kts 98°
2026-05-04 21:06 18.64244 -65.17655 30361 ft 422 kts 98°
2026-05-04 21:06 18.63751 -65.14616 30011 ft 419 kts 98°
2026-05-04 21:06 18.63261 -65.11601 29608 ft 416 kts 98°
2026-05-04 21:07 18.62770 -65.08605 29214 ft 413 kts 98°
2026-05-04 21:07 18.62282 -65.05628 28822 ft 411 kts 99°
2026-05-04 21:07 18.61796 -65.02668 28439 ft 408 kts 98°
2026-05-04 21:07 18.61314 -64.99726 28058 ft 406 kts 99°
2026-05-04 21:08 18.60837 -64.96805 27678 ft 403 kts 99°
2026-05-04 21:08 18.60366 -64.93935 27315 ft 401 kts 99°
2026-05-04 21:08 18.59889 -64.91047 26951 ft 399 kts 99°
2026-05-04 21:08 18.59411 -64.88171 26590 ft 396 kts 99°
2026-05-04 21:09 18.58938 -64.85323 26236 ft 394 kts 99°
2026-05-04 21:09 18.58468 -64.82489 25886 ft 391 kts 99°
2026-05-04 21:09 18.58003 -64.79678 25541 ft 388 kts 99°
2026-05-04 21:09 18.57542 -64.76881 25197 ft 385 kts 100°
2026-05-04 21:10 18.57085 -64.74110 24856 ft 382 kts 100°
2026-05-04 21:10 18.56630 -64.71362 24526 ft 379 kts 100°
2026-05-04 21:10 18.56177 -64.68645 24195 ft 375 kts 100°
2026-05-04 21:10 18.55726 -64.65947 23869 ft 372 kts 100°
2026-05-04 21:11 18.55280 -64.63278 23533 ft 368 kts 101°
2026-05-04 21:11 18.54840 -64.60635 23101 ft 365 kts 101°
2026-05-04 21:11 18.54403 -64.58005 22663 ft 363 kts 100°
2026-05-04 21:11 18.53969 -64.55385 22229 ft 362 kts 100°
2026-05-04 21:12 18.53536 -64.52783 21806 ft 360 kts 101°
2026-05-04 21:12 18.53100 -64.50184 21388 ft 359 kts 100°
2026-05-04 21:12 18.52670 -64.47626 20980 ft 359 kts 100°
2026-05-04 21:12 18.52236 -64.45041 20572 ft 358 kts 100°
2026-05-04 21:13 18.51802 -64.42458 20166 ft 358 kts 100°
2026-05-04 21:13 18.51367 -64.39864 19770 ft 360 kts 100°
2026-05-04 21:13 18.50931 -64.37270 19378 ft 359 kts 100°
2026-05-04 21:13 18.50497 -64.34681 18987 ft 358 kts 100°
2026-05-04 21:14 18.50068 -64.32105 18607 ft 357 kts 99°
2026-05-04 21:14 18.49641 -64.29528 18222 ft 356 kts 99°
2026-05-04 21:14 18.49215 -64.26961 17794 ft 355 kts 100°
2026-05-04 21:14 18.48787 -64.24404 17359 ft 354 kts 100°
2026-05-04 21:15 18.48354 -64.21847 16933 ft 353 kts 100°
2026-05-04 21:15 18.47922 -64.19309 16516 ft 352 kts 100°
2026-05-04 21:15 18.47493 -64.16778 16106 ft 351 kts 100°
2026-05-04 21:15 18.47067 -64.14251 15698 ft 349 kts 100°
2026-05-04 21:16 18.46645 -64.11738 15301 ft 347 kts 100°
2026-05-04 21:16 18.46220 -64.09239 14908 ft 345 kts 100°
2026-05-04 21:16 18.45795 -64.06759 14520 ft 343 kts 101°
2026-05-04 21:16 18.45375 -64.04291 14137 ft 341 kts 101°
2026-05-04 21:17 18.44961 -64.01839 13736 ft 338 kts 100°
2026-05-04 21:17 18.44551 -63.99412 13301 ft 336 kts 100°
2026-05-04 21:17 18.44146 -63.97022 12883 ft 334 kts 101°
2026-05-04 21:17 18.43732 -63.94591 12458 ft 332 kts 101°
2026-05-04 21:18 18.43327 -63.92209 12045 ft 330 kts 101°
2026-05-04 21:18 18.42928 -63.89872 11641 ft 328 kts 101°
2026-05-04 21:18 18.42527 -63.87517 11237 ft 326 kts 101°
2026-05-04 21:18 18.42130 -63.85188 11024 ft 318 kts 101°
2026-05-04 21:19 18.41747 -63.82945 11021 ft 305 kts 101°
2026-05-04 21:19 18.41372 -63.80754 11026 ft 303 kts 101°
2026-05-04 21:19 18.40999 -63.78575 11024 ft 302 kts 101°
2026-05-04 21:19 18.40626 -63.76396 11026 ft 302 kts 101°
2026-05-04 21:20 18.40250 -63.74218 11024 ft 302 kts 101°
2026-05-04 21:20 18.39628 -63.72118 11026 ft 301 kts 119°
2026-05-04 21:20 18.38379 -63.70355 10889 ft 303 kts 133°
2026-05-04 21:20 18.36952 -63.68729 10536 ft 302 kts 134°
2026-05-04 21:21 18.35503 -63.67128 10191 ft 301 kts 134°
2026-05-04 21:21 18.34053 -63.65542 9838 ft 300 kts 134°
2026-05-04 21:21 18.32607 -63.63961 9459 ft 299 kts 134°
2026-05-04 21:21 18.31171 -63.62385 9085 ft 298 kts 134°
2026-05-04 21:22 18.29744 -63.60813 8718 ft 296 kts 134°
2026-05-04 21:22 18.28321 -63.59241 8346 ft 295 kts 134°
2026-05-04 21:22 18.26912 -63.57679 7988 ft 293 kts 133°
2026-05-04 21:22 18.25512 -63.56130 7632 ft 291 kts 133°
2026-05-04 21:23 18.24143 -63.54613 7261 ft 280 kts 133°
2026-05-04 21:23 18.22829 -63.53158 6910 ft 268 kts 133°
2026-05-04 21:23 18.21555 -63.51748 6563 ft 264 kts 133°
2026-05-04 21:23 18.20293 -63.50350 6205 ft 262 kts 133°
2026-05-04 21:24 18.19034 -63.48958 5833 ft 264 kts 133°
2026-05-04 21:24 18.17780 -63.47572 5465 ft 260 kts 133°
2026-05-04 21:24 18.16535 -63.46193 5103 ft 260 kts 133°
2026-05-04 21:24 18.15311 -63.44837 4744 ft 259 kts 133°
2026-05-04 21:25 18.14081 -63.43471 4375 ft 255 kts 133°
2026-05-04 21:25 18.12883 -63.42144 4062 ft 243 kts 133°
2026-05-04 21:25 18.11768 -63.40915 4020 ft 220 kts 133°
2026-05-04 21:25 18.10742 -63.39783 3913 ft 210 kts 133°
2026-05-04 21:26 18.09740 -63.38675 3791 ft 208 kts 133°
2026-05-04 21:26 18.08745 -63.37573 3673 ft 206 kts 133°
2026-05-04 21:26 18.07767 -63.36493 3552 ft 200 kts 133°
2026-05-04 21:26 18.06832 -63.35461 3428 ft 191 kts 133°
2026-05-04 21:27 18.05931 -63.34470 3328 ft 183 kts 133°
2026-05-04 21:27 18.05080 -63.33533 3213 ft 172 kts 133°
2026-05-04 21:27 18.04280 -63.32650 3103 ft 161 kts 133°
2026-05-04 21:27 18.03536 -63.31829 3030 ft 149 kts 133°
2026-05-04 21:28 18.02839 -63.31059 3015 ft 142 kts 133°
2026-05-04 21:28 18.02218 -63.30264 3014 ft 140 kts 122°
2026-05-04 21:28 18.01811 -63.29334 2943 ft 141 kts 108°
2026-05-04 21:28 18.01647 -63.28316 2809 ft 141 kts 95°
2026-05-04 21:29 18.01734 -63.27286 2692 ft 142 kts 85°
2026-05-04 21:29 18.01885 -63.26260 2574 ft 142 kts 85°
2026-05-04 21:29 18.02030 -63.25260 2461 ft 140 kts 86°
2026-05-04 21:29 18.02176 -63.24250 2360 ft 138 kts 85°
2026-05-04 21:30 18.02320 -63.23256 2180 ft 137 kts 87°
2026-05-04 21:30 18.02462 -63.22269 2008 ft 136 kts 85°
2026-05-04 21:30 18.02604 -63.21289 1831 ft 135 kts 84°
2026-05-04 21:30 18.02746 -63.20308 1649 ft 136 kts 87°
2026-05-04 21:31 18.03019 -63.18355 1483 ft 133 kts 87°
2026-05-04 21:31 18.03134 -63.17403 1332 ft 131 kts 86°
2026-05-04 21:31 18.03247 -63.16434 1097 ft 133 kts 86°
2026-05-04 21:32 18.03381 -63.15466 884 ft 134 kts 82°
2026-05-04 21:32 18.03547 -63.14499 678 ft 135 kts 85°
2026-05-04 21:32 18.03723 -63.13532 468 ft 134 kts 84°
2026-05-04 21:32 18.03854 -63.12567 266 ft 137 kts 80°
2026-05-04 21:33 18.03971 -63.11719 52 ft 128 kts 84°
2026-05-04 21:33 18.04087 -63.10981 22 ft 66 kts 79°
2026-05-04 21:33 18.04112 -63.10801 21 ft 0 kts 83°
2026-05-04 21:33 18.04116 -63.10767 21 ft 19 kts 83°
2026-05-04 21:34 18.04134 -63.10572 21 ft 23 kts 90°
2026-05-04 21:34 18.04157 -63.10491 21 ft 8 kts 329°
2026-05-04 21:34 18.04160 -63.10534 21 ft 7 kts 258°
2026-05-04 21:34 18.04148 -63.10589 24 ft 9 kts 257°
2026-05-04 21:35 18.04132 -63.10662 23 ft 12 kts 258°
2026-05-04 21:35 18.04114 -63.10770 21 ft 17 kts 260°
2026-05-04 21:35 18.04091 -63.10909 21 ft 21 kts 261°
2026-05-04 21:35 18.04162 -63.11006 21 ft 17 kts 322°
2026-05-04 21:36 18.04165 -63.11011 21 ft 0 kts 305°
2026-05-04 21:37 18.04167 -63.11018 23 ft 4 kts 289°
2026-05-04 21:38 18.04166 -63.11054 21 ft 6 kts 264°
2026-05-04 21:38 18.04159 -63.11107 21 ft 8 kts 261°
2026-05-04 21:38 18.04149 -63.11176 21 ft 11 kts 261°
2026-05-04 21:38 18.04138 -63.11263 21 ft 13 kts 272°
2026-05-04 21:39 18.04214 -63.11310 21 ft 15 kts 358°
2026-05-04 21:39 18.04284 -63.11249 21 ft 0 kts 61°
2026-05-04 21:39 18.04289 -63.11239 21 ft 3 kts 60°
2026-05-04 21:39 18.04311 -63.11220 21 ft 5 kts 15°
2026-05-04 21:40 18.04328 -63.11223 21 ft 1 kts 358°
2026-05-04 21:40 18.04340 -63.11223 21 ft 0 kts 358°
2026-05-04 21:40 18.04350 -63.11224 21 ft 1 kts 353°
2026-05-04 21:40 18.04351 -63.11224 21 ft 0 kts 353°